Location: Alpha Ridge Park
(39.3209°N, 76.9128°W)
Time: 13:14:53
(UTC-04:00)

S-56A Canister/Altair - Pass Details

Date: 26 May 2019
Orbit: 633 x 2499 km, 38.9° (Epoch: 15 June)

Event Time Altitude Azimuth Distance (km) Brightness Sun altitude
Rises 04:36:25 0° 275° (W) 3,697 - -11.9°
Exits shadow 04:37:03 - 275° (W) 3,475 10.5 -11.8°
Reaches altitude 10° 04:38:39 10° 275° (W) 2,932 10.1 -11.6°
Maximum altitude 04:45:59 84° 188° (S) 1,455 8.9 -10.5°
Drops below altitude 10° 04:57:25 10° 102° (ESE) 4,418 12.0 -8.8°
Sets 05:01:31 0° 102° (ESE) 5,664 12.6 -8.1°
